When you browse on this site, cookies collect data to enhance your experience and personalize the content and advertising you see.
Visit our Privacy Policy to learn more. By continuing to use the site, you agree to this use of cookies and data.
  • In France
  • List of Countries
  • For 7 days
  • Water Temperature
  • Weather Map
  • Weather Widgets
  • user-avatar
    Login

    Hourly Weather Trufanovo

    Today, 19 October, Saturday

    Time Temperature Precipitation Wind Pressure Humidity
    00:00 +9°C° 0 mm 0 mps 745 mmHg 91%
    01:00 +9°C° 0 mm 0 mps 745 mmHg 91%
    02:00 +9°C° 0 mm 0 mps 746 mmHg 91%
    03:00 +9°C° 0 mm 0 mps 746 mmHg 91%
    04:00 +10°C° 0 mm 1 mps 746 mmHg 92%
    05:00 +10°C° 0 mm 1 mps 746 mmHg 92%
    06:00 +10°C° 0 mm 1 mps 746 mmHg 91%
    07:00 +11°C° 0 mm 1 mps 746 mmHg 90%
    08:00 +10°C° 0 mm 2 mps 747 mmHg 88%
    09:00 +12°C° 0 mm 2 mps 747 mmHg 83%
    10:00 +14°C° 0 mm 2 mps 747 mmHg 78%
    11:00 +15°C° 0 mm 2 mps 747 mmHg 72%
    12:00 +15°C° 0 mm 2 mps 746 mmHg 71%
    13:00 +16°C° 0 mm 2 mps 746 mmHg 69%
    14:00 +16°C° 0 mm 2 mps 746 mmHg 67%
    15:00 +15°C° 0 mm 2 mps 746 mmHg 72%
    16:00 +14°C° 0 mm 2 mps 746 mmHg 77%
    17:00 +13°C° 0 mm 2 mps 746 mmHg 82%
    18:00 +12°C° 0 mm 2 mps 746 mmHg 83%
    19:00 +12°C° 0 mm 2 mps 747 mmHg 84%
    20:00 +12°C° 0 mm 2 mps 747 mmHg 85%
    21:00 +12°C° 0 mm 2 mps 747 mmHg 85%
    22:00 +10°C° 0 mm 2 mps 747 mmHg 85%
    23:00 +10°C° 0 mm 2 mps 747 mmHg 85%

    Tomorrow, 20 October, Sunday

    Time Temperature Precipitation Wind Pressure Humidity
    00:00 +10°C° 0 mm 2 mps 747 mmHg 85%
    01:00 +10°C° 0 mm 2 mps 747 mmHg 85%
    02:00 +10°C° 0 mm 2 mps 747 mmHg 85%
    03:00 +9°C° 0 mm 2 mps 747 mmHg 86%
    04:00 +9°C° 0 mm 2 mps 747 mmHg 87%
    05:00 +9°C° 0 mm 2 mps 747 mmHg 88%
    06:00 +9°C° 0 mm 2 mps 747 mmHg 86%
    07:00 +10°C° 0 mm 3 mps 747 mmHg 84%
    08:00 +11°C° 0 mm 3 mps 748 mmHg 83%
    09:00 +12°C° 0 mm 3 mps 748 mmHg 79%
    10:00 +13°C° 0 mm 3 mps 748 mmHg 76%
    11:00 +16°C° 0 mm 3 mps 748 mmHg 72%
    12:00 +16°C° 0 mm 3 mps 748 mmHg 71%
    13:00 +17°C° 0 mm 3 mps 747 mmHg 70%
    14:00 +17°C° 0 mm 3 mps 747 mmHg 69%
    15:00 +16°C° 0 mm 3 mps 747 mmHg 73%
    16:00 +14°C° 0 mm 3 mps 747 mmHg 78%
    17:00 +13°C° 0 mm 3 mps 747 mmHg 83%
    18:00 +13°C° 0 mm 3 mps 747 mmHg 83%
    19:00 +12°C° 0 mm 3 mps 748 mmHg 84%
    20:00 +12°C° 0 mm 3 mps 748 mmHg 85%
    21:00 +12°C° 0 mm 3 mps 748 mmHg 85%
    22:00 +12°C° 0 mm 3 mps 748 mmHg 85%
    23:00 +11°C° 0 mm 3 mps 748 mmHg 85%

    Day after tomorrow, 21 October, Monday

    Time Temperature Precipitation Wind Pressure Humidity
    00:00 +11°C° 0 mm 3 mps 748 mmHg 85%
    01:00 +11°C° 0 mm 3 mps 747 mmHg 84%
    02:00 +11°C° 0 mm 3 mps 747 mmHg 84%
    03:00 +10°C° 0 mm 3 mps 747 mmHg 85%
    04:00 +10°C° 0 mm 3 mps 747 mmHg 86%
    05:00 +9°C° 0 mm 3 mps 747 mmHg 87%
    06:00 +10°C° 0 mm 3 mps 747 mmHg 83%
    07:00 +11°C° 0 mm 4 mps 747 mmHg 80%
    08:00 +11°C° 0 mm 4 mps 747 mmHg 76%
    09:00 +12°C° 0 mm 4 mps 747 mmHg 72%
    10:00 +14°C° 0 mm 5 mps 747 mmHg 67%
    11:00 +15°C° 0 mm 5 mps 747 mmHg 63%
    12:00 +16°C° 0 mm 5 mps 747 mmHg 62%
    13:00 +16°C° 0 mm 5 mps 746 mmHg 61%
    14:00 +16°C° 0 mm 5 mps 746 mmHg 60%
    15:00 +15°C° 0 mm 5 mps 746 mmHg 65%
    16:00 +14°C° 0 mm 4 mps 746 mmHg 69%
    17:00 +13°C° 0 mm 4 mps 745 mmHg 74%
    18:00 +13°C° 0 mm 4 mps 745 mmHg 76%
    19:00 +12°C° 0 mm 4 mps 745 mmHg 77%
    20:00 +12°C° 0 mm 4 mps 746 mmHg 78%
    21:00 +12°C° 0 mm 4 mps 745 mmHg 79%
    22:00 +12°C° 0 mm 4 mps 745 mmHg 80%
    23:00 +11°C° 0 mm 4 mps 745 mmHg 80%

    22 October, Tuesday

    Time Temperature Precipitation Wind Pressure Humidity
    00:00 +11°C° 0 mm 4 mps 745 mmHg 81%
    01:00 +11°C° 0 mm 3 mps 745 mmHg 82%
    02:00 +10°C° 0 mm 3 mps 745 mmHg 83%
    03:00 +10°C° 0 mm 3 mps 745 mmHg 83%
    04:00 +10°C° 0 mm 3 mps 745 mmHg 83%
    05:00 +10°C° 0 mm 3 mps 745 mmHg 84%
    06:00 +10°C° 0 mm 3 mps 745 mmHg 81%
    07:00 +11°C° 0 mm 4 mps 745 mmHg 79%
    08:00 +11°C° 0 mm 4 mps 745 mmHg 76%
    09:00 +12°C° 0 mm 4 mps 745 mmHg 73%
    10:00 +13°C° 0 mm 4 mps 745 mmHg 70%
    11:00 +14°C° 0 mm 4 mps 745 mmHg 67%
    12:00 +15°C° 0 mm 4 mps 745 mmHg 66%
    13:00 +15°C° 0 mm 4 mps 744 mmHg 66%
    14:00 +17°C° 0 mm 4 mps 744 mmHg 65%
    15:00 +16°C° 0 mm 3 mps 744 mmHg 70%
    16:00 +14°C° 0 mm 3 mps 744 mmHg 74%
    17:00 +14°C° 0 mm 2 mps 744 mmHg 78%
    18:00 +14°C° 0 mm 2 mps 744 mmHg 79%
    19:00 +13°C° 0 mm 2 mps 744 mmHg 81%
    20:00 +13°C° 0 mm 2 mps 745 mmHg 82%
    21:00 +13°C° 0 mm 2 mps 745 mmHg 84%
    22:00 +12°C° 0 mm 2 mps 744 mmHg 86%
    23:00 +12°C° 0 mm 1 mps 744 mmHg 89%

    23 October, Wednesday

    Time Temperature Precipitation Wind Pressure Humidity
    00:00 +12°C° 0 mm 1 mps 745 mmHg 90%
    01:00 +11°C° 0 mm 1 mps 745 mmHg 91%
    02:00 +11°C° 0 mm 1 mps 745 mmHg 92%
    03:00 +11°C° 0 mm 1 mps 745 mmHg 93%
    04:00 +11°C° 0 mm 1 mps 745 mmHg 94%
    05:00 +11°C° 0 mm 1 mps 745 mmHg 94%
    06:00 +10°C° 0 mm 2 mps 745 mmHg 94%
    07:00 +10°C° 0 mm 2 mps 746 mmHg 93%
    08:00 +12°C° 0 mm 2 mps 746 mmHg 93%
    09:00 +13°C° 0 mm 2 mps 746 mmHg 88%
    10:00 +14°C° 0 mm 2 mps 746 mmHg 83%
    11:00 +16°C° 0 mm 3 mps 746 mmHg 78%
    12:00 +16°C° 0 mm 3 mps 746 mmHg 75%
    13:00 +17°C° 0 mm 3 mps 746 mmHg 72%
    14:00 +17°C° 0 mm 4 mps 746 mmHg 69%
    15:00 +16°C° 0 mm 3 mps 746 mmHg 74%
    16:00 +14°C° 0 mm 3 mps 746 mmHg 79%
    17:00 +12°C° 0 mm 3 mps 746 mmHg 85%
    18:00 +11°C° 0 mm 3 mps 746 mmHg 86%
    19:00 +11°C° 0 mm 3 mps 746 mmHg 88%
    20:00 +10°C° 0 mm 2 mps 746 mmHg 90%
    21:00 +9°C° 0 mm 2 mps 746 mmHg 90%
    22:00 +9°C° 0 mm 2 mps 747 mmHg 89%
    23:00 +9°C° 0 mm 2 mps 747 mmHg 89%

    24 October, Thursday

    Time Temperature Precipitation Wind Pressure Humidity
    00:00 +9°C° 0 mm 2 mps 747 mmHg 90%
    01:00 +9°C° 0 mm 2 mps 747 mmHg 92%
    02:00 +8°C° 0 mm 2 mps 747 mmHg 93%
    03:00 +8°C° 0 mm 2 mps 747 mmHg 93%
    04:00 +8°C° 0 mm 2 mps 747 mmHg 93%
    05:00 +7°C° 0 mm 2 mps 747 mmHg 94%
    06:00 +8°C° 0 mm 2 mps 748 mmHg 92%
    07:00 +8°C° 0 mm 2 mps 748 mmHg 90%
    08:00 +8°C° 0 mm 2 mps 748 mmHg 88%
    09:00 +9°C° 0 mm 2 mps 748 mmHg 81%
    10:00 +10°C° 0 mm 2 mps 748 mmHg 74%
    11:00 +12°C° 0 mm 2 mps 748 mmHg 68%
    12:00 +12°C° 0 mm 1 mps 748 mmHg 65%
    13:00 +13°C° 0 mm 1 mps 748 mmHg 62%
    14:00 +13°C° 0 mm 1 mps 748 mmHg 59%
    15:00 +12°C° 0 mm 1 mps 748 mmHg 63%
    16:00 +10°C° 0 mm 0 mps 747 mmHg 68%
    17:00 +9°C° 0 mm 0 mps 747 mmHg 72%
    18:00 +9°C° 0 mm 0 mps 747 mmHg 73%
    19:00 +8°C° 0 mm 0 mps 747 mmHg 74%
    20:00 +9°C° 0 mm 1 mps 748 mmHg 76%
    21:00 +9°C° 0 mm 1 mps 747 mmHg 77%
    22:00 +9°C° 0 mm 1 mps 747 mmHg 79%
    23:00 +8°C° 0 mm 2 mps 747 mmHg 81%
    Show more